CAPE
870 1056 1102 1202 1331 1290 1310 1325 1338 1328 1332 1330 1322 1312 1316 1316 1314 1332 1366 1426 1518 1668 1848 1972 2098 2176 2226 2228 2220 2227 2242 2251 2206 2126 1949 1720 1439 1163 904 666 436 150 188 131 154 112 140 153 106 66 14 20 24 0 2 0 0 0 0 0 0 0 0 0 19 74 57 0 0 106 117 122 292 163 284 180 105 16 178 515 559 499 500 470 347
844 1034 1171 1244 1267 1312 1325 1344 1358 1364 1361 1363 1366 1354 1358 1362 1348 1333 1347 1400 1473 1588 1698 1822 1928 2010 2060 2086 2097 2136 2158 2189 2162 2096 2001 1847 1621 1330 1046 788 661 160 140 186 174 175 163 158 119 99 4 42 14 0 24 0 0 0 0 0 0 0 0 17 5 116 303 40 38 14 28 46 350 122 230 512 476 341 194 102 70 286 483 467 486
828 1021 1181 1278 1338 1365 1380 1413 1405 1418 1408 1404 1407 1403 1410 1418 1402 1382 1362 1403 1465 1544 1634 1708 1797 1869 1908 1940 1978 2009 2057 2100 2084 2047 1986 1910 1749 1492 1190 946 794 633 124 184 168 190 167 160 115 59 11 32 22 10 2 4 1 10 26 10 39 40 3 38 68 58 156 320 144 210 184 126 260 504 234 131 230 102 72 182 133 32 104 260 351
811 952 1122 1281 1372 1412 1412 1420 1447 1472 1473 1456 1436 1437 1447 1457 1476 1467 1445 1430 1458 1534 1603 1646 1712 1769 1800 1835 1848 1874 1928 1984 1992 1989 1941 1900 1828 1670 1416 1116 906 797 378 164 156 163 197 166 151 56 42 72 70 16 0 9 37 79 95 57 95 85 56 25 124 384 394 388 258 225 262 159 123 292 338 83 38 105 117 190 40 19 28 56 101
838 911 1026 1191 1306 1440 1432 1451 1479 1503 1518 1504 1494 1482 1481 1496 1498 1527 1539 1530 1514 1544 1581 1612 1656 1682 1704 1719 1731 1764 1826 1872 1892 1877 1868 1875 1828 1738 1586 1359 1072 882 751 154 236 188 204 206 173 87 55 68 59 30 6 14 32 68 128 105 135 133 96 146 215 208 383 447 504 301 284 279 306 316 350 354 400 346 342 336 336 304 270 241 215
907 972 1029 1116 1278 1368 1444 1475 1498 1530 1553 1548 1542 1536 1536 1527 1530 1548 1600 1612 1618 1600 1609 1618 1632 1653 1661 1664 1675 1704 1743 1773 1804 1782 1760 1774 1788 1746 1658 1521 1302 1052 908 728 311 241 228 204 156 113 60 56 51 37 14 26 38 60 144 150 160 183 232 242 227 262 294 554 583 684 514 439 350 373 359 361 368 388 374 385 386 356 319 300 294
1034 1095 1139 1161 1264 1325 1391 1462 1512 1540 1574 1596 1587 1588 1596 1598 1592 1596 1674 1660 1670 1672 1664 1661 1659 1669 1680 1678 1689 1700 1708 1730 1738 1736 1723 1718 1736 1731 1678 1615 1465 1235 1038 946 757 499 185 148 132 96 102 95 97 56 32 37 58 110 182 225 144 196 269 312 292 289 341 423 477 432 547 504 382 536 400 405 447 462 464 450 535 522 312 316 402
1056 1164 1273 1328 1350 1382 1409 1459 1490 1529 1572 1694 1675 1670 1649 1653 1656 1651 1655 1771 1708 1704 1700 1689 1709 1696 1690 1685 1691 1703 1702 1701 1710 1710 1712 1701 1705 1691 1675 1680 1622 1406 1180 1056 900 742 621 223 132 98 112 131 104 65 58 113 100 162 183 188 186 178 246 309 240 270 344 383 437 518 502 529 536 504 509 517 540 508 481 450 602 675 668 470 444
1152 1212 1331 1444 1490 1500 1515 1538 1554 1602 1657 1707 1751 1778 1777 1801 1766 1724 1740 1795 1813 1754 1740 1729 1723 1720 1709 1705 1708 1683 1668 1672 1702 1722 1734 1716 1690 1668 1672 1699 1688 1570 1366 1200 1024 839 740 663 143 142 193 294 117 80 198 77 143 348 127 205 251 253 303 309 340 337 389 442 487 510 538 565 604 610 626 610 568 720 700 448 416 484 462 454 531
1227 1291 1353 1479 1560 1618 1683 1710 1703 1688 1701 1732 1785 1822 1823 1879 1855 1820 1817 1818 1878 1852 1812 1799 1782 1758 1735 1735 1733 1711 1696 1697 1724 1762 1742 1722 1692 1697 1721 1736 1747 1708 1565 1371 1137 917 794 830 730 423 483 611 258 263 96 96 20 130 102 83 360 300 318 322 312 411 475 519 554 597 660 737 779 786 753 713 643 605 546 552 438 413 374 446 505
1288 1361 1437 1501 1576 1691 1789 1860 1871 1844 1814 1810 1827 1876 1913 1950 1976 1987 1950 1880 1888 1965 1970 1863 1840 1820 1786 1759 1752 1763 1762 1757 1771 1812 1816 1789 1750 1740 1762 1778 1770 1754 1678 1496 1276 1029 898 950 1034 666 666 862 633 241 203 256 238 18 172 70 214 420 377 286 405 513 618 686 755 792 855 871 863 799 770 758 700 617 650 604 530 480 485 476 555
1318 1436 1513 1560 1640 1750 1848 1937 1995 2004 1968 1951 1934 1940 1976 2018 2054 2061 1981 1966 1954 1952 1997 1944 1925 1899 1865 1844 1849 1806 1794 1803 1823 1841 1848 1842 1812 1806 1821 1831 1836 1803 1750 1653 1479 1250 1176 1211 1280 1208 713 410 369 287 242 232 220 217 186 374 303 203 205 296 484 615 716 786 794 800 806 816 812 724 758 764 732 766 714 629 555 520 517 520 498
1362 1499 1578 1655 1750 1815 1892 1980 2052 2097 2110 2101 2077 2065 2070 2090 2111 2062 2040 2027 2015 2012 2018 2016 2005 1988 1964 1939 1924 1919 1878 1860 1854 1860 1849 1850 1831 1835 1879 1872 1886 1882 1840 1774 1655 1510 1400 1407 1476 1418 1035 672 742 366 284 259 0 0 166 328 270 237 275 390 585 712 829 905 908 877 801 797 826 904 768 977 855 765 697 628 587 534 535 516 500
1443 1553 1647 1736 1834 1896 1947 2012 2083 2138 2178 2195 2208 2206 2188 2194 2173 2089 2078 2054 2047 2058 2060 2060 2055 2049 2040 2024 2012 1988 1973 1937 1906 1879 1863 1846 1826 1816 1885 1923 1935 1910 1920 1885 1798 1675 1608 1593 1568 1608 1444 1082 612 424 344 316 265 363 389 304 256 295 335 515 707 868 891 908 911 789 879 771 1009 1095 1029 941 866 755 695 650 599 550 512 505 551
1524 1617 1702 1796 1904 1984 2040 2080 2136 2180 2209 2246 2284 2314 2314 2295 2270 2167 2138 2127 2106 2095 2099 2096 2099 2104 2092 2104 2096 2078 2031 1990 1954 1929 1928 1916 1875 1834 1876 1958 1978 1964 1969 1932 1886 1828 1776 1743 1797 1807 1770 1564 1048 684 521 436 344 378 431 346 295 401 642 774 811 747 704 614 554 678 866 772 941 982 1024 898 747 723 688 628 572 524 460 401 410
1610 1694 1771 1868 1983 2089 2149 2182 2224 2252 2258 2287 2329 2371 2372 2309 2299 2262 2221 2212 2187 2144 2131 2126 2148 2147 2162 2172 2157 2158 2109 2033 2008 1979 1990 1992 1954 1929 1946 1986 2015 1968 1948 1900 1874 1895 1866 1848 1832 1794 1731 1621 1250 854 554 504 402 447 450 413 530 647 726 707 574 392 483 124 88 363 502 856 990 1041 908 723 732 722 604 506 459 424 332 327 293
1699 1813 1900 1965 2067 2185 2260 2300 2318 2329 2334 2336 2375 2418 2426 2367 2352 2320 2301 2293 2273 2248 2224 2208 2199 2210 2218 2220 2218 2219 2161 2098 2072 2066 2070 2072 2027 2028 2036 2027 2026 2007 1982 1928 1897 1887 1836 1750 1726 1662 1612 1552 1379 996 734 564 350 421 443 487 529 562 638 563 538 432 503 215 410 645 884 987 1010 922 700 585 577 498 398 313 347 245 227 224 247
1734 1896 2020 2107 2200 2295 2383 2408 2388 2368 2406 2411 2441 2461 2429 2406 2390 2368 2348 2348 2368 2327 2308 2279 2256 2252 2246 2260 2288 2261 2195 2135 2127 2121 2130 2118 2111 2102 2100 2094 2067 2029 2018 1934 1815 1762 1773 1745 1595 1564 1372 1139 966 977 748 566 392 220 443 455 466 472 542 503 494 364 294 540 705 822 878 907 821 697 626 609 481 273 342 417 415 248 400 402 306
1681 1862 2061 2214 2298 2411 2494 2548 2558 2526 2484 2472 2458 2455 2454 2470 2447 2411 2407 2405 2395 2377 2349 2322 2311 2289 2277 2268 2271 2249 2221 2175 2154 2136 2138 2166 2177 2150 2130 2160 2171 2153 2109 2060 1971 1858 1789 1750 1743 1411 990 714 700 583 507 351 330 194 92 446 431 477 498 458 470 348 417 544 639 663 676 596 564 603 616 468 221 180 280 410 353 351 498 560 453
1678 1803 1965 2119 2315 2474 2582 2638 2674 2655 2645 2646 2572 2559 2532 2502 2493 2498 2470 2445 2443 2430 2404 2384 2362 2334 2312 2332 2259 2255 2244 2216 2206 2166 2162 2203 2224 2193 2188 2238 2294 2312 2337 2388 2298 2081 1684 1455 1514 1202 780 728 718 535 360 250 221 74 2 418 450 604 491 313 354 299 378 384 398 376 414 418 582 606 463 216 164 169 130 204 232 281 385 570 500
1671 1716 1784 1886 2118 2392 2572 2690 2763 2775 2727 2736 2645 2591 2563 2566 2550 2528 2524 2501 2483 2486 2461 2442 2410 2390 2354 2328 2283 2264 2243 2233 2245 2193 2194 2222 2246 2265 2223 2251 2348 2430 2517 2582 2540 2259 1640 1168 990 879 797 748 635 513 416 318 416 212 408 418 565 586 171 216 366 288 214 186 218 304 582 662 541 330 179 126 56 113 152 64 171 237 384 468 399
1676 1689 1730 1774 1883 2146 2418 2646 2781 2834 2824 2785 2732 2664 2626 2608 2600 2596 2581 2563 2543 2530 2533 2507 2470 2425 2418 2380 2340 2309 2250 2226 2241 2263 2268 2261 2272 2320 2250 2314 2486 2611 2689 2591 2418 2062 1636 1354 1096 966 861 626 429 414 440 509 486 464 465 508 436 241 141 84 299 168 100 142 491 648 576 355 218 131 32 23 71 148 157 148 173 170 243 416 361
1608 1650 1688 1740 1788 1915 2182 2400 2588 2770 2834 2824 2800 2775 2726 2684 2680 2674 2656 2624 2604 2586 2562 2546 2525 2480 2446 2410 2400 2347 2262 2246 2261 2283 2290 2302 2353 2366 2354 2289 2402 2533 2414 2204 2024 1822 1630 1488 1300 1091 973 726 482 464 552 586 547 532 501 520 330 104 20 3 18 67 250 514 507 406 234 152 31 10 16 75 19 2 7 26 44 75 181 207 187
1457 1560 1628 1666 1702 1767 1881 2127 2377 2564 2727 2816 2824 2817 2787 2756 2729 2694 2671 2657 2643 2638 2614 2586 2559 2532 2495 2454 2418 2369 2376 2346 2346 2326 2344 2389 2456 2484 2574 2616 2509 2473 2047 1717 1679 1617 1500 1348 1217 1070 916 613 457 563 597 594 584 580 528 190 89 33 0 0 0 246 376 340 238 142 42 0 0 0 4 26 12 30 15 1 0 0 6 5 7
1889 1826 1720 1663 1705 1720 1762 1876 2158 2390 2598 2675 2750 2791 2817 2810 2769 2726 2704 2675 2679 2661 2654 2632 2587 2560 2536 2541 2483 2475 2492 2486 2442 2447 2495 2571 2608 2695 2850 3115 2952 1793 1561 1667 1402 1364 1269 1093 995 889 696 483 533 558 562 576 592 438 231 92 24 0 0 0 194 230 214 128 89 7 0 0 0 0 0 0 0 0 3 0 0 0 0 0 0
2449 2320 2295 2250 2190 2099 1942 1817 1802 2177 2433 2603 2670 2721 2774 2775 2782 2840 2799 2768 2713 2671 2654 2629 2619 2599 2584 2578 2595 2560 2536 2541 2542 2568 2636 2681 2795 2980 3175 3290 2599 2236 1922 1623 1420 1040 1014 885 751 573 243 253 268 220 133 412 455 390 104 3 0 0 0 22 149 176 80 0 0 0 0 0 0 0 0 0 0 12 0 0 0 0 0 0 0
3480 3129 2921 2799 2699 2644 2566 2446 2299 2145 2068 2384 2605 2677 2744 2774 2788 2815 2814 2781 2729 2684 2674 2647 2610 2610 2603 2621 2631 2580 2609 2642 2645 2668 2661 2765 2983 3200 3446 3093 2582 2165 1898 1470 1045 938 822 668 531 246 0 0 0 0 4 186 92 0 1 0 0 0 0 172 114 0 0 0 0 0 0 0 0 0 0 0 0 0 0 0 0 0 0 0 0
3740 3834 3786 3658 3619 3599 3400 3171 2976 2696 2481 2321 2260 2665 2779 2736 2769 2768 2792 2795 2722 2675 2683 2648 2636 2606 2580 2595 2613 2694 2700 2671 2702 2695 2718 2877 3096 3406 3392 2977 2644 2349 1822 1233 884 796 694 580 451 2 0 0 0 0 48 14 74 0 0 0 0 77 186 79 0 0 0 0 0 0 0 0 0 0 0 0 0 0 0 0 0 0 0 0 0
2732 3110 3541 3800 3830 3532 3316 3202 3099 3224 3208 3180 2932 2671 2718 2763 2783 2802 2779 2771 2700 2671 2622 2658 2668 2689 2630 2581 2648 2740 2682 2732 2834 2722 2764 2884 3207 3379 3140 2879 2719 2183 1546 1264 1011 832 681 557 425 0 0 0 0 0 0 0 0 0 0 0 84 201 142 2 0 0 0 0 0 0 0 0 0 0 0 0 0 0 0 0 0 0 0 0 0
2192 2265 2368 2754 3030 3376 3588 3597 3402 3198 3146 2959 2920 3056 3069 2840 2674 2842 2792 2718 2709 2668 2615 2610 2631 2672 2656 2795 2825 2821 2817 2881 2797 2774 2833 3065 3260 3245 2975 2656 2162 2048 1787 1438 1008 746 582 466 103 0 0 0 0 0 0 0 0 0 0 49 158 109 0 0 0 0 0 0 0 0 0 0 0 0 0 0 0 0 0 0 0 0 0 0 0
1685 1834 1880 2012 2127 2314 2482 2617 2715 3216 3399 3388 3408 3239 3204 3002 2933 2876 2784 2756 2724 2720 2708 2637 2608 2538 2601 2626 2713 2712 2713 2288 2235 2470 2519 2814 2652 2695 2648 2299 2215 1869 1437 1062 824 724 588 442 0 0 0 0 0 0 0 0 0 0 27 92 115 12 0 0 0 0 0 0 0 0 0 0 0 0 0 0 0 0 0 0 0 0 0 0 0
1051 1192 1257 1355 1373 1447 1518 1638 1832 2029 2191 2428 2782 2969 2858 2780 2635 2739 2935 2849 2729 2718 2710 2664 2588 2512 2597 2589 2572 2461 2367 2208 2024 2090 2218 2324 2479 2460 1808 1705 1487 1165 923 842 747 652 595 0 0 0 0 0 0 0 0 0 0 0 44 55 31 0 0 0 0 0 0 0 0 0 0 0 0 0 0 0 0 0 0 0 0 0 0 0 0
602 642 668 636 661 668 632 692 753 727 586 430 518 1230 2102 2568 2677 2714 2630 2753 2772 2758 2578 2494 2586 2586 2552 2526 2502 2350 2412 2390 1828 1498 1301 1573 1548 1337 1246 1059 952 909 826 764 666 454 0 0 0 0 0 0 0 0 0 0 0 0 0 0 0 0 0 0 0 0 0 0 0 0 0 0 0 0 0 0 0 0 0 0 0 0 0 0 0
633 643 626 624 759 896 926 920 906 824 791 946 1021 952 1270 1545 1604 2053 2595 2635 2677 2593 2614 2608 2474 2404 2325 1990 1983 1910 1778 1636 1383 1368 1280 1169 1164 1076 892 847 823 782 706 686 108 0 0 0 0 0 0 0 0 0 0 0 0 0 0 0 0 0 0 0 0 0 0 0 0 0 0 0 0 0 0 0 0 0 0 0 0 0 0 0 0
727 636 642 680 762 846 927 960 960 752 567 478 395 118 95 650 732 630 1370 2436 2423 2198 2328 2298 2475 2238 1743 1346 1363 1400 1456 1392 1338 1240 1120 1138 1045 936 756 685 625 551 324 0 0 0 0 0 0 0 0 0 0 0 0 0 0 0 0 0 0 0 0 0 0 0 0 0 0 0 0 0 0 0 0 0 0 0 0 0 0 0 0 0 0
836 927 861 835 818 820 858 945 943 956 861 796 520 297 0 0 0 29 256 877 1195 984 1861 2204 2079 1539 1160 1216 1297 1358 1358 1268 1240 1218 1171 1004 902 759 641 536 429 162 0 0 0 0 0 0 0 0 0 0 0 0 0 0 0 0 0 0 0 0 0 0 0 0 0 0 0 0 0 0 0 0 0 0 0 0 0 0 0 0 0 0 0
1043 1176 1140 951 768 633 676 838 961 1078 994 556 463 578 543 103 19 164 181 18 40 0 163 1296 993 401 503 669 747 861 948 998 973 961 992 950 894 754 607 478 446 233 0 0 0 0 0 0 0 0 0 0 0 0 0 0 0 0 0 0 0 0 0 0 0 0 0 0 0 0 0 0 0 0 0 0 0 0 0 0 0 0 0 0 0
1280 1189 1064 932 924 892 872 850 828 895 792 652 505 456 482 474 208 30 0 5 103 121 249 315 125 320 499 586 488 594 686 643 574 533 548 563 574 577 492 452 193 0 0 0 0 0 0 0 0 0 0 0 0 0 0 0 0 0 0 0 0 0 0 0 0 0 0 0 0 0 0 0 0 0 0 0 0 0 0 0 0 0 0 0 0
1264 1154 1062 929 800 677 632 534 528 551 440 333 310 441 396 357 180 134 50 84 83 275 306 171 97 153 192 238 466 512 468 429 427 487 496 538 505 502 398 312 28 0 0 0 0 0 0 0 0 0 0 0 0 0 0 0 0 0 0 0 0 0 0 0 0 0 0 0 0 0 0 0 0 0 0 0 0 0 0 0 0 0 0 0 0
1095 1096 995 858 722 656 636 606 565 532 524 547 587 498 416 344 273 284 344 279 248 404 379 270 239 142 192 374 425 433 440 400 384 392 392 419 362 265 0 0 0 0 0 0 0 0 0 0 0 0 0 0 0 0 0 0 0 0 0 0 0 0 0 0 0 0 0 0 0 0 0 0 0 0 0 0 0 0 0 0 0 0 0 0 0
752 780 743 676 659 648 606 574 525 504 513 500 551 548 521 462 443 476 406 375 342 286 82 34 30 0 89 288 364 396 353 312 270 128 99 0 0 0 0 0 0 0 0 0 0 0 0 0 0 0 0 0 0 0 0 0 0 0 0 0 0 0 0 0 0 0 0 0 0 0 0 0 0 0 0 0 0 0 0 0 0 0 0 0 0
548 536 507 469 426 347 319 309 334 379 362 336 326 438 528 413 354 320 310 322 317 319 318 296 288 317 325 283 194 196 222 142 0 0 0 0 0 0 0 0 0 0 0 0 0 0 0 0 0 0 0 0 0 0 0 0 0 0 0 0 0 0 0 0 0 0 0 0 0 0 0 0 0 0 0 0 0 0 0 0 0 0 0 0 0
536 496 441 372 307 247 188 111 116 122 165 164 170 238 346 396 290 209 178 168 208 242 272 308 323 292 259 8 0 0 0 0 0 0 0 0 0 0 0 0 0 0 0 0 0 0 0 0 22 0 0 0 0 0 0 0 0 0 0 0 0 0 0 0 0 0 0 0 0 0 0 0 0 0 0 0 0 0 0 0 0 0 0 0 0
529 581 531 471 412 350 214 92 14 0 14 58 91 124 229 277 268 253 196 171 112 19 122 199 218 186 50 0 0 0 0 0 0 0 0 0 0 0 0 0 0 0 0 24 82 56 28 4 0 0 0 0 0 0 0 0 0 0 0 0 0 0 0 0 0 0 0 0 0 0 0 0 0 0 0 0 0 0 0 0 0 0 0 0 0
296 383 486 470 420 361 344 143 0 0 0 0 88 98 122 134 135 152 198 244 258 230 160 137 134 100 19 107 164 196 198 164 151 99 54 30 44 62 61 14 0 62 95 90 0 0 0 0 0 0 0 0 0 0 0 0 0 0 0 0 0 0 0 0 0 0 0 0 0 0 0 0 0 0 0 0 0 0 0 0 0 0 0 0 0
380 270 344 330 237 221 210 216 49 0 0 0 0 0 0 0 0 0 12 30 122 193 177 112 88 110 113 120 132 114 88 83 62 57 42 31 36 9 0 0 0 0 0 0 0 0 0 0 0 0 0 0 0 0 0 0 0 0 0 0 0 0 0 0 0 0 0 0 0 0 0 0 0 0 0 0 0 0 0 0 0 0 0 0 0
52 50 58 105 196 204 200 221 154 182 206 67 28 0 0 0 0 0 0 20 5 26 61 105 144 126 100 98 110 92 59 45 0 0 0 0 0 0 0 0 0 0 0 0 0 0 0 0 0 0 0 0 0 0 0 0 0 0 0 0 0 0 0 0 0 0 0 0 0 0 0 0 0 0 0 0 0 0 0 0 0 0 0 0 0
80 83 54 1 103 147 191 193 168 166 159 168 0 59 64 70 78 115 90 104 111 84 56 82 123 157 171 153 146 99 92 79 3 0 0 0 0 0 0 0 0 0 0 0 0 0 0 0 0 0 0 0 0 0 0 0 0 0 0 0 0 0 0 0 0 0 0 0 0 0 0 0 0 0 0 0 0 0 0 0 0 0 0 0 0
94 91 100 108 112 119 112 95 103 104 114 109 99 121 153 125 0 266 208 158 198 180 94 48 60 126 165 180 178 142 59 0 0 0 0 0 0 0 0 0 0 0 0 0 0 0 0 0 0 0 0 0 0 0 0 0 0 0 0 0 0 0 0 0 0 0 0 0 0 0 0 0 0 0 0 0 0 0 0 0 0 0 0 0 0
28 30 70 32 35 37 29 28 62 68 72 68 75 92 90 98 136 94 76 199 296 233 142 43 76 161 208 239 219 87 0 0 0 0 0 0 0 0 0 0 0 0 0 0 0 0 0 0 0 0 0 0 0 0 0 0 0 0 0 0 0 0 0 0 0 0 0 0 0 0 0 0 0 0 0 0 0 0 0 0 0 0 0 0 0
0 0 0 0 0 1 2 4 2 62 41 35 51 70 57 0 17 48 68 121 193 162 79 0 122 209 286 250 86 0 0 0 0 0 0 0 0 0 0 0 0 0 0 0 0 0 0 0 0 0 0 0 0 0 0 0 0 0 0 0 0 0 0 0 0 0 0 0 0 0 0 0 0 0 0 0 0 0 0 0 0 0 0 0 0
Wind_Speed
16 15 16 15 16 16 17 18 18 18 18 18 17 17 18 19 19 20 21 21 21 19 16 13 12 12 11 10 9 9 9 10 11 11 13 14 15 17 18 18 19 17 17 18 19 21 23 24 23 nan nan nan nan nan nan nan nan nan nan nan nan nan nan nan nan nan nan nan nan 18 18 19 19 22 22 22 24 nan 25 26 27 29 30 31 31
14 14 15 15 15 16 16 17 18 19 18 18 17 18 19 20 21 21 21 20 21 18 15 13 13 13 13 11 9 10 10 11 12 12 13 15 16 15 18 18 17 18 17 19 20 20 22 24 23 nan nan nan nan nan nan nan nan nan nan nan nan nan nan nan nan 24 22 nan nan nan nan nan 22 25 25 25 26 29 28 29 nan 29 30 30 31
13 14 15 15 15 15 16 16 17 17 17 18 18 18 19 21 23 22 21 21 19 17 15 14 13 14 14 12 11 11 12 12 13 13 14 16 18 17 17 19 19 19 20 19 21 21 23 23 23 nan nan nan nan nan nan nan nan nan nan nan nan nan nan nan nan nan 25 24 25 25 25 27 27 27 29 30 29 30 nan 29 30 nan 32 31 32
13 15 15 14 14 15 14 15 15 15 15 16 17 18 20 22 23 21 21 20 17 15 15 14 14 14 15 14 12 12 13 13 14 13 15 17 18 18 18 18 19 21 21 20 21 23 24 23 22 nan nan nan nan nan nan nan nan nan nan nan nan nan nan nan 26 26 26 26 27 29 29 30 28 29 30 nan nan 32 34 33 nan nan nan nan 35
14 15 15 14 14 14 13 14 13 13 13 14 16 18 19 21 21 20 19 17 15 15 15 15 13 14 15 16 14 14 14 15 15 14 14 15 17 17 18 19 21 24 23 22 22 24 25 25 24 nan nan nan nan nan nan nan nan nan 26 26 26 26 nan 27 27 27 27 26 26 29 31 30 30 31 34 33 34 35 36 35 34 36 37 38 39
14 14 14 14 14 14 13 13 12 12 12 12 14 15 17 18 18 18 17 15 14 14 14 15 14 13 16 17 16 15 16 16 16 16 16 16 16 17 18 20 22 24 24 24 25 26 26 25 24 24 nan nan nan nan nan nan nan nan 25 26 26 27 27 28 28 28 28 28 29 27 31 31 32 34 36 38 36 35 34 34 35 38 39 37 39
15 14 15 16 15 15 15 14 13 13 13 12 13 14 15 16 17 16 16 15 15 15 14 13 14 15 17 19 17 16 17 16 16 18 18 18 19 19 20 21 23 24 25 28 29 28 27 25 24 nan 27 nan nan nan nan nan nan 25 25 26 26 27 27 27 29 29 30 29 30 30 29 30 33 33 39 40 40 39 36 33 33 39 41 38 34
14 14 15 15 16 17 16 15 14 14 14 14 14 15 15 15 15 15 15 14 15 15 15 15 15 17 18 19 18 17 17 16 17 20 22 22 22 21 21 22 24 26 28 30 31 29 26 25 25 nan 30 27 26 nan nan 27 nan 25 25 25 26 27 27 27 29 29 30 30 31 31 32 31 34 36 38 37 37 38 39 37 33 34 37 39 36
15 15 15 16 18 18 16 15 15 15 16 17 17 17 16 15 15 15 14 14 15 16 16 17 17 18 19 20 19 18 17 17 19 22 24 25 25 25 24 23 24 26 29 31 31 29 27 26 28 30 31 27 26 nan 28 nan 27 26 26 27 27 28 28 28 29 30 29 29 30 32 31 32 34 35 36 37 38 35 40 41 39 38 37 34 33
15 15 15 16 17 17 17 17 17 18 18 18 19 20 19 17 16 16 15 14 15 17 18 18 19 19 20 21 20 18 17 18 21 28 29 28 29 27 26 25 25 26 29 32 33 32 31 31 31 33 30 25 24 28 nan nan nan 29 29 nan 29 29 30 30 31 31 30 30 30 32 32 32 34 38 36 36 37 37 39 41 40 40 41 39 35
15 15 14 14 16 18 18 19 20 20 20 19 20 21 21 20 18 17 16 15 16 18 20 20 20 20 20 21 20 18 18 18 24 30 32 34 32 31 30 29 27 27 29 34 36 36 34 34 33 31 25 23 25 30 30 32 32 nan 31 nan 31 32 32 32 33 33 34 33 32 34 35 33 35 38 38 37 40 41 42 44 43 44 44 43 40
15 14 12 14 17 19 19 21 21 22 22 21 22 22 22 22 21 20 19 17 17 19 20 20 20 20 20 21 19 19 18 20 27 32 34 36 36 33 32 32 31 30 33 37 38 39 37 35 34 28 21 24 28 28 30 32 32 32 31 30 31 33 35 37 36 36 37 37 36 37 37 36 35 39 40 40 40 42 44 45 47 48 48 48 48
14 13 13 16 17 18 20 22 22 22 23 23 23 23 23 22 22 22 22 20 20 20 20 21 19 19 20 20 19 20 20 23 29 33 35 37 39 37 34 35 34 33 37 39 41 43 38 35 36 34 28 32 31 29 30 31 nan nan 32 30 30 34 36 37 38 38 40 41 39 38 41 40 37 39 44 44 45 45 47 49 51 52 52 50 46
14 13 16 18 19 19 21 22 22 23 24 25 25 24 24 23 22 22 22 23 23 22 21 21 20 19 19 20 20 21 22 27 32 34 35 38 40 39 36 36 35 35 38 39 41 43 40 40 42 39 33 31 32 33 33 33 32 32 31 31 31 33 36 39 39 38 40 42 42 39 42 46 42 43 46 49 49 48 50 50 53 53 52 48 44
16 16 17 19 21 21 22 22 22 23 25 26 26 25 25 24 23 23 24 25 25 23 22 21 20 19 19 20 21 22 23 32 35 36 36 38 41 41 37 36 34 35 36 37 40 42 39 38 42 40 38 35 33 37 37 36 36 35 34 34 35 36 38 40 42 43 43 39 37 40 43 47 45 44 48 50 50 50 52 52 54 52 48 45 41
20 21 20 20 20 20 20 20 21 23 25 27 27 25 25 25 25 26 25 25 25 25 23 22 21 21 21 21 22 22 26 37 37 37 38 39 44 39 39 38 35 35 36 37 41 42 39 40 41 39 39 40 39 42 41 40 40 39 38 37 38 39 40 40 44 45 45 44 nan 43 45 46 47 47 50 51 51 52 52 53 52 49 45 41 40
23 24 22 20 19 19 20 21 21 22 24 26 27 27 27 26 27 29 27 26 26 26 25 25 23 22 22 22 22 23 28 36 39 40 40 43 43 38 40 39 35 34 36 40 44 43 41 43 43 39 39 39 41 44 44 45 42 42 41 40 40 41 41 42 44 46 45 45 44 44 45 47 50 51 52 51 50 53 52 49 46 46 44 41 40
24 26 24 22 22 22 21 22 23 24 26 26 28 28 29 29 29 31 29 28 26 26 27 27 26 25 25 24 23 25 28 37 41 42 44 46 43 40 40 41 38 36 36 39 43 41 40 46 42 40 40 40 44 47 48 48 44 43 43 42 42 43 43 43 43 42 43 42 42 43 45 47 48 50 50 51 52 52 50 46 46 47 44 43 41
25 25 24 25 26 26 25 26 27 27 27 27 29 30 31 30 31 34 31 30 28 28 29 28 28 28 27 26 27 28 32 38 41 45 47 46 43 40 42 40 40 37 37 41 43 42 39 41 44 42 41 42 47 48 50 49 45 45 nan 44 43 43 44 45 45 45 45 46 47 48 48 49 50 50 51 53 52 49 47 43 44 44 42 43 42
26 27 27 29 32 32 31 32 32 32 31 32 32 32 32 33 34 34 33 33 32 32 31 29 29 29 31 30 31 32 35 41 41 46 47 46 45 42 42 42 39 37 40 44 44 40 39 39 40 44 45 46 48 50 50 52 48 nan nan 46 45 44 45 45 46 47 47 48 49 49 50 49 49 48 48 48 47 45 43 42 42 43 42 41 42
30 31 33 34 34 34 35 36 36 34 34 34 35 36 37 35 36 36 35 36 36 36 33 31 30 30 33 35 34 36 38 44 42 46 47 46 45 45 44 43 39 40 41 41 41 40 41 40 39 43 46 47 48 49 50 52 50 49 49 46 45 46 48 46 46 49 48 49 50 50 49 47 47 46 45 44 nan 42 41 nan 42 43 42 42 41
37 37 37 36 35 36 37 38 37 36 35 37 40 40 40 39 39 39 40 41 39 37 37 37 35 34 35 38 38 39 42 48 47 44 47 47 46 45 46 45 44 43 42 37 36 37 40 42 41 44 47 47 48 49 51 52 51 49 49 47 47 50 48 nan 47 47 nan 49 49 48 47 45 45 44 nan nan nan 40 40 40 41 42 42 40 40
38 38 38 38 37 37 37 38 39 39 39 41 42 42 44 44 42 42 42 41 40 39 39 40 41 39 39 40 42 44 47 49 52 47 45 47 45 44 47 51 51 50 44 39 38 39 42 43 42 46 48 47 48 49 51 54 52 50 53 52 51 50 nan nan nan nan 48 49 49 47 45 44 nan nan nan nan nan nan nan nan nan nan 39 38 37
39 39 40 39 39 39 40 40 40 41 40 41 41 43 46 47 47 47 46 46 46 45 44 44 44 44 43 43 46 49 50 51 50 52 47 46 46 45 45 50 55 53 46 40 41 43 45 44 44 49 49 49 50 52 54 55 52 53 52 50 nan nan nan nan nan 47 48 48 48 46 nan nan nan nan nan nan nan nan nan nan nan nan nan nan nan
46 44 43 41 39 39 40 41 42 43 44 46 47 45 45 47 49 49 50 51 53 52 50 49 48 47 47 46 47 51 53 54 52 51 52 47 46 45 43 50 53 52 48 43 46 47 50 52 52 52 52 52 53 54 54 56 58 55 51 nan nan nan nan nan 47 48 48 48 nan nan nan nan nan nan nan nan nan nan nan nan nan nan nan nan nan
45 43 41 41 39 41 42 42 43 44 45 48 48 47 47 50 50 50 52 53 54 53 53 53 51 50 49 49 52 54 56 58 56 53 51 49 47 46 49 52 54 53 50 49 53 59 59 57 56 56 55 54 52 50 50 51 53 53 51 nan nan nan nan nan 46 47 nan nan nan nan nan nan nan nan nan nan nan nan nan nan nan nan nan nan nan
41 40 39 40 42 44 45 46 48 48 49 50 50 50 52 54 55 55 55 53 53 53 55 55 52 51 51 54 57 59 59 60 59 57 55 54 51 50 52 54 56 57 55 54 57 58 58 56 55 55 nan nan nan nan nan 56 nan nan nan nan nan nan nan 45 46 nan nan nan nan nan nan nan nan nan nan nan nan nan nan nan nan nan nan nan nan
48 47 45 44 45 46 47 46 47 50 51 53 53 54 55 56 57 57 58 56 55 55 56 57 55 52 55 60 64 63 61 61 62 62 59 57 55 55 54 56 58 55 55 54 55 58 57 60 62 nan nan nan nan nan nan nan nan nan nan nan nan nan 44 nan nan nan nan nan nan nan nan nan nan nan nan nan nan nan nan nan nan nan nan nan nan
50 50 49 50 50 50 49 48 49 49 51 54 54 54 56 57 57 55 55 57 57 56 57 58 58 59 61 65 66 66 67 63 59 61 62 59 60 58 57 59 61 57 56 59 60 60 59 58 58 nan nan nan nan nan nan nan nan nan nan nan nan 44 44 nan nan nan nan nan nan nan nan nan nan nan nan nan nan nan nan nan nan nan nan nan nan
52 51 50 52 53 53 54 54 53 53 52 53 55 55 55 57 59 59 58 55 54 53 55 57 63 70 73 73 72 74 71 63 62 63 65 64 62 63 63 63 60 59 60 63 60 59 58 57 55 nan nan nan nan nan nan nan nan nan nan nan 43 43 nan nan nan nan nan nan nan nan nan nan nan nan nan nan nan nan nan nan nan nan nan nan nan
50 49 51 54 54 55 56 55 57 57 58 58 58 59 60 61 64 63 58 60 61 60 60 64 73 77 80 80 84 84 70 67 63 62 65 67 66 67 66 64 63 61 61 61 58 60 60 57 nan nan nan nan nan nan nan nan nan nan nan nan 42 nan nan nan nan nan nan nan nan nan nan nan nan nan nan nan nan nan nan nan nan nan nan nan nan
47 46 50 52 52 53 53 54 55 58 59 62 63 61 62 62 64 74 78 69 72 77 82 84 81 81 82 87 86 77 72 70 65 58 58 67 74 71 63 60 59 57 55 59 58 58 59 nan nan nan nan nan nan nan nan nan nan nan nan nan nan nan nan nan nan nan nan nan nan nan nan nan nan nan nan nan nan nan nan nan nan nan nan nan nan
45 47 49 50 51 51 52 53 55 58 59 58 58 59 62 66 69 76 86 89 76 82 91 91 86 80 81 85 84 80 74 72 71 64 59 62 70 69 62 57 54 53 56 56 57 58 nan nan nan nan nan nan nan nan nan nan nan nan nan nan nan nan nan nan nan nan nan nan nan nan nan nan nan nan nan nan nan nan nan nan nan nan nan nan nan
45 47 49 50 51 50 50 53 57 59 58 59 62 64 66 74 80 81 84 84 93 89 90 93 92 87 86 85 82 86 84 78 71 65 65 63 60 61 61 57 56 52 52 55 58 nan nan nan nan nan nan nan nan nan nan nan nan nan nan nan nan nan nan nan nan nan nan nan nan nan nan nan nan nan nan nan nan nan nan nan nan nan nan nan nan
46 50 54 52 51 51 52 55 56 57 59 58 62 66 nan 56 63 74 79 86 91 87 89 86 88 94 89 85 82 83 84 82 77 72 73 73 70 67 68 66 61 53 53 nan nan nan nan nan nan nan nan nan nan nan nan nan nan nan nan nan nan nan nan nan nan nan nan nan nan nan nan nan nan nan nan nan nan nan nan nan nan nan nan nan nan
49 50 49 49 50 50 52 54 55 57 59 58 59 63 nan nan nan nan 61 80 90 88 82 83 79 93 100 92 86 83 85 83 83 84 80 77 74 74 66 62 62 58 nan nan nan nan nan nan nan nan nan nan nan nan nan nan nan nan nan nan nan nan nan nan nan nan nan nan nan nan nan nan nan nan nan nan nan nan nan nan nan nan nan nan nan
47 48 47 47 48 48 50 52 54 54 57 57 57 58 51 39 nan 22 24 nan nan nan 54 80 77 97 113 101 88 88 91 86 85 86 82 75 73 71 65 61 58 58 nan nan nan nan nan nan nan nan nan nan nan nan nan nan nan nan nan nan nan nan nan nan nan nan nan nan nan nan nan nan nan nan nan nan nan nan nan nan nan nan nan nan nan
44 44 44 44 45 45 47 49 51 50 49 51 47 45 47 41 35 nan nan nan 36 30 47 66 63 70 92 96 84 80 87 86 84 80 76 71 68 65 63 60 58 nan nan nan nan nan nan nan nan nan nan nan nan nan nan nan nan nan nan nan nan nan nan nan nan nan nan nan nan nan nan nan nan nan nan nan nan nan nan nan nan nan nan nan nan
46 44 42 40 41 42 42 42 43 42 42 41 39 37 35 31 26 27 nan nan nan 41 43 71 nan 59 56 67 72 72 76 71 67 65 64 59 55 53 55 58 nan nan nan nan nan nan nan nan nan nan nan nan nan nan nan nan nan nan nan nan nan nan nan nan nan nan nan nan nan nan nan nan nan nan nan nan nan nan nan nan nan nan nan nan nan
45 44 41 39 40 39 39 39 37 37 35 34 33 32 32 27 23 22 21 25 32 31 34 52 70 60 41 41 48 51 55 56 56 54 52 50 47 47 nan nan nan nan nan nan nan nan nan nan nan nan nan nan nan nan nan nan nan nan nan nan nan nan nan nan nan nan nan nan nan nan nan nan nan nan nan nan nan nan nan nan nan nan nan nan nan
45 44 42 39 38 38 40 39 36 32 30 31 29 29 30 27 25 24 20 18 16 16 nan nan nan nan nan 36 37 38 41 41 42 41 nan nan nan nan nan nan nan nan nan nan nan nan nan nan nan nan nan nan nan nan nan nan nan nan nan nan nan nan nan nan nan nan nan nan nan nan nan nan nan nan nan nan nan nan nan nan nan nan nan nan nan
45 44 41 40 39 41 38 37 34 33 30 29 28 26 24 24 22 21 21 19 16 15 15 20 25 29 31 35 35 36 37 37 nan nan nan nan nan nan nan nan nan nan nan nan nan nan nan nan nan nan nan nan nan nan nan nan nan nan nan nan nan nan nan nan nan nan nan nan nan nan nan nan nan nan nan nan nan nan nan nan nan nan nan nan nan
45 44 42 41 42 43 41 38 37 36 32 30 29 27 26 24 22 22 22 21 20 19 19 21 22 23 25 nan nan nan nan nan nan nan nan nan nan nan nan nan nan nan nan nan nan nan nan nan nan nan nan nan nan nan nan nan nan nan nan nan nan nan nan nan nan nan nan nan nan nan nan nan nan nan nan nan nan nan nan nan nan nan nan nan nan
41 42 43 44 42 42 42 nan nan nan nan nan nan 30 29 28 27 26 25 26 26 nan 26 27 27 27 nan nan nan nan nan nan nan nan nan nan nan nan nan nan nan nan nan nan nan nan nan nan nan nan nan nan nan nan nan nan nan nan nan nan nan nan nan nan nan nan nan nan nan nan nan nan nan nan nan nan nan nan nan nan nan nan nan nan nan
40 38 40 43 44 42 41 38 nan nan nan nan nan nan 30 29 30 29 28 29 29 30 31 31 31 31 nan 32 34 37 39 41 43 nan nan nan nan nan nan nan nan nan nan nan nan nan nan nan nan nan nan nan nan nan nan nan nan nan nan nan nan nan nan nan nan nan nan nan nan nan nan nan nan nan nan nan nan nan nan nan nan nan nan nan nan
36 31 33 37 41 40 38 36 nan nan nan nan nan nan nan nan nan nan nan nan 32 33 34 34 nan 33 34 35 37 39 nan nan nan nan nan nan nan nan nan nan nan nan nan nan nan nan nan nan nan nan nan nan nan nan nan nan nan nan nan nan nan nan nan nan nan nan nan nan nan nan nan nan nan nan nan nan nan nan nan nan nan nan nan nan nan
nan nan nan 34 37 38 37 33 32 32 32 nan nan nan nan nan nan nan nan nan nan nan nan 36 35 35 nan nan 37 nan nan nan nan nan nan nan nan nan nan nan nan nan nan nan nan nan nan nan nan nan nan nan nan nan nan nan nan nan nan nan nan nan nan nan nan nan nan nan nan nan nan nan nan nan nan nan nan nan nan nan nan nan nan nan nan
nan nan nan nan 36 37 36 34 34 35 35 33 nan nan nan nan nan 33 nan 36 36 nan nan nan 31 30 31 32 34 nan nan nan nan nan nan nan nan nan nan nan nan nan nan nan nan nan nan nan nan nan nan nan nan nan nan nan nan nan nan nan nan nan nan nan nan nan nan nan nan nan nan nan nan nan nan nan nan nan nan nan nan nan nan nan nan
nan nan nan 34 35 38 38 nan 37 38 37 34 nan 32 29 26 nan 27 30 33 36 35 nan nan nan 31 31 33 35 37 nan nan nan nan nan nan nan nan nan nan nan nan nan nan nan nan nan nan nan nan nan nan nan nan nan nan nan nan nan nan nan nan nan nan nan nan nan nan nan nan nan nan nan nan nan nan nan nan nan nan nan nan nan nan nan
nan nan nan nan nan nan nan nan nan nan nan nan nan nan nan nan 30 nan nan 25 27 30 31 nan nan 34 33 33 35 nan nan nan nan nan nan nan nan nan nan nan nan nan nan nan nan nan nan nan nan nan nan nan nan nan nan nan nan nan nan nan nan nan nan nan nan nan nan nan nan nan nan nan nan nan nan nan nan nan nan nan nan nan nan nan nan
nan nan nan nan nan nan nan nan nan nan nan nan nan nan nan nan nan nan nan 27 29 33 nan nan 32 31 31 30 nan nan nan nan nan nan nan nan nan nan nan nan nan nan nan nan nan nan nan nan nan nan nan nan nan nan nan nan nan nan nan nan nan nan nan nan nan nan nan nan nan nan nan nan nan nan nan nan nan nan nan nan nan nan nan nan nan
Wind_Direction
303 300 292 292 292 291 287 283 283 278 279 282 284 284 282 283 284 285 281 288 292 295 293 281 267 270 280 282 286 289 303 307 304 314 326 342 348 351 348 355 358 355 350 356 358 353 352 355 354 nan nan nan nan nan nan nan nan nan nan nan nan nan nan nan nan nan nan nan nan 312 303 300 299 302 299 295 290 nan 286 285 284 285 285 286 287
305 301 294 293 299 292 287 281 279 276 281 281 283 281 281 280 280 278 284 288 290 294 291 271 262 276 279 285 285 289 299 309 300 306 326 342 349 344 351 353 353 347 345 354 355 355 352 354 355 nan nan nan nan nan nan nan nan nan nan nan nan nan nan nan nan 326 327 nan nan nan nan nan 306 302 303 298 297 293 293 291 nan 289 288 288 288
306 298 297 300 305 296 290 286 282 283 285 280 281 280 276 274 274 280 282 283 284 287 283 269 265 276 282 281 282 286 299 306 304 314 332 345 352 350 352 352 348 342 343 349 352 352 353 352 351 nan nan nan nan nan nan nan nan nan nan nan nan nan nan nan nan nan 329 327 323 319 317 311 311 308 304 302 299 294 nan 294 293 nan 289 288 286
296 300 304 308 306 301 302 298 297 295 290 281 285 278 275 273 275 280 282 279 282 278 274 268 267 278 284 282 281 285 295 300 303 315 335 345 353 356 354 353 350 349 348 348 350 350 352 349 347 nan nan nan nan nan nan nan nan nan nan nan nan nan nan nan 328 327 324 324 323 324 316 313 311 307 303 nan nan 300 299 295 nan nan nan nan 294
301 310 313 317 316 317 319 310 310 309 301 284 282 276 275 273 275 282 280 281 280 272 265 263 270 279 281 282 280 285 298 302 305 312 330 339 350 352 353 354 354 355 353 349 344 344 345 347 340 nan nan nan nan nan nan nan nan nan 340 336 335 332 nan 325 324 321 320 320 317 316 314 314 311 307 305 304 302 302 301 302 301 300 301 300 300
304 311 318 326 329 334 330 323 322 317 307 299 294 287 284 284 284 280 282 284 279 270 269 264 272 283 280 278 280 287 295 300 306 316 321 329 336 341 346 350 354 356 350 341 337 335 337 337 332 330 nan nan nan nan nan nan nan nan 339 335 333 328 326 323 320 319 317 315 313 311 312 313 310 310 308 307 306 304 304 304 303 303 303 303 303
302 314 326 337 339 345 343 341 328 321 315 308 297 297 299 294 292 291 286 283 279 271 269 272 272 278 277 276 281 288 295 299 304 311 317 323 332 333 338 344 349 350 346 340 335 332 333 330 328 nan 328 nan nan nan nan nan nan 341 339 336 331 327 324 322 319 317 316 314 311 313 312 310 309 309 306 307 308 309 308 303 302 303 306 307 302
307 318 324 336 348 353 350 342 338 333 325 322 321 317 311 306 307 300 290 291 283 281 274 274 274 277 277 278 281 285 292 297 303 310 314 321 325 330 335 340 344 344 341 339 337 334 331 329 328 nan 330 329 331 nan nan 337 nan 338 336 332 328 326 324 321 318 316 314 313 313 313 313 313 310 309 306 307 307 308 309 306 302 300 302 305 302
316 319 323 340 351 346 336 334 334 330 331 332 335 334 325 312 304 302 300 295 286 282 277 275 282 283 280 279 282 287 293 297 300 308 313 320 324 328 335 339 340 339 336 335 336 333 326 326 325 326 328 329 336 nan 339 nan 334 335 334 331 328 325 324 320 317 314 314 313 313 313 316 315 314 311 310 310 311 309 301 304 305 304 302 299 296
317 317 326 343 340 329 327 328 327 327 330 332 333 334 334 326 316 312 307 301 292 286 283 285 287 291 287 283 283 287 289 289 306 319 318 318 321 325 328 334 339 337 332 330 330 328 329 327 325 328 328 334 339 344 nan nan nan 338 334 nan 327 323 323 321 318 318 319 320 320 319 320 319 316 314 314 313 309 305 304 305 305 303 300 301 298
316 320 333 333 319 314 318 323 321 328 331 326 322 325 328 326 327 324 313 302 296 288 285 290 292 291 288 285 289 287 287 291 312 312 320 323 319 322 324 326 331 331 329 330 330 329 329 328 324 326 332 343 349 350 347 344 344 nan 340 nan 329 324 321 323 323 325 325 326 325 323 324 322 317 315 315 312 309 309 306 304 304 300 300 299 299
316 322 327 309 305 310 313 314 318 325 323 326 322 317 314 319 327 330 325 317 300 291 294 297 294 290 285 285 291 290 287 297 306 312 319 322 320 318 318 320 322 328 333 332 326 326 330 328 324 321 331 346 348 345 345 344 343 342 342 338 334 333 331 329 329 325 326 328 328 328 324 322 317 314 314 311 310 307 305 303 302 302 302 303 303
308 309 300 294 301 304 301 303 311 313 318 318 311 307 310 317 322 324 329 322 309 310 309 303 300 295 291 293 296 291 286 295 302 310 317 320 321 317 314 318 321 330 336 332 327 328 326 319 321 336 341 348 345 341 337 337 nan nan 340 337 335 336 338 339 335 331 326 329 329 327 324 321 320 316 314 313 307 306 303 302 301 303 304 305 306
287 288 283 288 295 297 296 299 303 307 305 303 302 304 310 317 318 315 312 313 320 324 319 315 309 303 297 295 292 287 285 289 302 309 313 317 318 316 312 316 323 330 333 330 329 329 322 318 327 337 335 339 341 338 336 335 331 329 328 326 328 335 338 339 338 334 326 327 327 328 323 321 321 317 313 310 307 306 304 304 304 305 308 310 307
279 275 277 280 282 286 292 296 299 296 295 295 296 302 307 307 309 308 308 312 315 316 315 315 314 308 299 292 287 285 280 289 299 307 311 313 314 314 309 313 321 326 326 328 327 321 316 320 329 334 334 337 338 336 335 334 331 329 329 328 330 332 331 329 326 326 327 320 320 326 323 320 320 317 311 309 309 308 308 308 308 309 309 308 306
277 274 274 275 282 288 291 293 292 290 290 290 294 299 301 302 304 300 299 300 300 302 306 311 316 313 303 294 289 287 281 290 298 303 306 307 309 307 308 312 319 323 324 323 315 312 316 324 330 336 337 337 340 341 338 332 331 329 329 328 329 325 323 322 323 323 323 325 nan 325 322 320 318 315 312 311 309 309 307 307 308 312 313 312 310
272 277 280 281 285 289 291 293 292 290 288 290 296 299 299 298 294 289 293 296 297 300 304 305 304 303 303 297 296 287 278 286 294 299 300 304 301 302 306 307 313 319 321 318 316 316 320 326 330 334 335 334 337 340 340 333 332 331 329 327 324 321 319 318 324 326 327 328 330 328 323 318 317 316 313 313 313 311 312 312 315 315 315 315 312
273 276 278 278 277 278 282 286 288 288 288 293 296 295 292 288 290 289 292 292 294 293 291 291 295 298 302 302 298 286 278 280 292 292 295 301 302 300 301 303 307 313 319 316 311 310 316 325 327 329 330 332 337 340 339 334 330 328 327 326 323 321 319 318 317 318 320 323 323 321 319 319 317 315 317 318 319 317 316 317 315 315 316 314 312
277 285 283 277 279 281 281 282 283 285 288 291 289 290 290 289 286 284 286 286 288 284 282 284 288 292 299 300 297 290 276 276 287 288 293 298 298 295 297 300 305 311 311 305 303 307 316 325 328 325 327 331 337 338 337 333 329 326 nan 323 323 323 319 318 318 317 317 317 317 315 314 312 313 316 316 319 320 320 319 320 315 316 316 314 314
292 291 283 278 278 281 283 287 289 291 294 294 290 289 283 277 277 281 282 281 281 279 280 279 285 288 291 293 288 286 280 272 282 287 290 294 299 293 292 296 303 308 307 306 309 312 315 315 319 326 330 334 335 336 335 334 328 nan nan 322 322 323 317 318 319 318 318 318 316 315 314 314 315 316 316 316 317 320 320 320 318 318 318 316 316
283 279 274 275 278 282 282 286 292 296 296 295 291 289 287 287 283 279 278 276 275 276 280 277 276 279 281 284 285 283 280 274 279 286 289 293 297 295 289 295 299 301 304 307 308 311 310 312 314 322 330 333 334 333 332 333 330 321 320 324 323 316 316 316 319 320 316 315 314 315 315 315 316 316 316 316 nan 319 320 nan 319 318 318 319 319
282 281 281 281 281 281 284 287 291 291 291 287 286 290 291 289 284 282 276 275 277 277 277 275 274 271 271 277 280 281 280 283 276 284 288 292 295 297 289 292 291 293 297 299 304 307 309 306 311 318 327 330 331 329 330 329 326 317 318 312 309 312 316 nan 314 315 nan 314 314 315 316 317 318 318 nan nan nan 318 319 319 319 320 322 323 323
279 283 285 286 285 286 287 291 290 288 289 292 294 296 292 289 287 284 281 279 279 278 275 274 273 271 269 269 271 275 273 276 285 280 286 291 294 295 293 288 292 292 294 299 304 308 304 303 305 314 322 327 326 324 323 322 320 318 317 315 316 316 nan nan nan nan 314 315 316 317 318 319 nan nan nan nan nan nan nan nan nan nan 323 325 326
271 275 280 283 284 285 287 287 287 284 285 285 288 289 288 289 289 287 286 284 282 283 278 273 271 270 270 268 268 269 270 267 279 284 282 289 290 294 294 301 295 290 295 298 299 300 301 305 306 312 318 319 318 317 319 320 317 315 315 314 nan nan nan nan nan 315 314 316 316 318 nan nan nan nan nan nan nan nan nan nan nan nan nan nan nan
270 273 276 277 279 279 279 280 284 286 286 286 286 284 283 284 284 286 285 283 283 284 283 279 275 272 271 271 270 269 269 267 268 278 286 285 287 290 291 288 291 292 292 291 293 296 297 299 301 306 307 308 310 311 314 317 318 319 317 nan nan nan nan nan 315 314 316 317 nan nan nan nan nan nan nan nan nan nan nan nan nan nan nan nan nan
269 273 274 275 276 277 276 279 281 283 285 285 288 285 284 283 282 281 279 279 280 283 282 280 277 274 272 271 270 269 268 265 268 268 273 276 280 287 286 286 288 289 286 286 289 289 292 294 296 297 299 302 304 308 311 314 314 312 311 nan nan nan nan nan 313 315 nan nan nan nan nan nan nan nan nan nan nan nan nan nan nan nan nan nan nan
266 269 271 273 275 276 278 279 281 282 283 284 283 281 279 279 280 280 278 277 276 276 277 277 276 278 278 274 269 268 267 267 267 268 264 265 266 270 273 275 277 279 275 276 280 282 287 291 292 294 nan nan nan nan nan 308 nan nan nan nan nan nan nan 314 314 nan nan nan nan nan nan nan nan nan nan nan nan nan nan nan nan nan nan nan nan
262 262 263 266 269 271 275 280 282 279 281 282 282 281 281 281 282 282 282 280 277 276 276 273 272 276 278 274 268 266 268 267 266 265 262 262 264 266 269 271 272 273 272 273 277 282 283 284 285 nan nan nan nan nan nan nan nan nan nan nan nan nan 311 nan nan nan nan nan nan nan nan nan nan nan nan nan nan nan nan nan nan nan nan nan nan
263 263 263 263 263 264 267 267 270 274 276 278 280 281 282 281 281 279 281 279 277 276 274 272 271 268 264 265 265 264 263 264 264 263 264 265 265 264 264 267 268 269 274 276 277 279 282 283 285 nan nan nan nan nan nan nan nan nan nan nan nan 308 309 nan nan nan nan nan nan nan nan nan nan nan nan nan nan nan nan nan nan nan nan nan nan
263 264 265 266 266 267 267 268 270 270 271 272 273 274 274 274 273 277 277 280 282 283 278 272 272 269 266 260 259 260 260 258 261 265 265 265 267 270 269 271 273 272 276 282 280 279 282 285 286 nan nan nan nan nan nan nan nan nan nan nan 307 307 nan nan nan nan nan nan nan nan nan nan nan nan nan nan nan nan nan nan nan nan nan nan nan
259 259 261 264 265 268 270 270 268 268 267 267 269 271 271 270 265 261 267 274 277 278 274 270 269 271 271 266 261 262 258 258 263 261 259 258 258 259 263 268 272 275 275 275 277 280 283 285 nan nan nan nan nan nan nan nan nan nan nan nan 305 nan nan nan nan nan nan nan nan nan nan nan nan nan nan nan nan nan nan nan nan nan nan nan nan
260 258 259 259 260 262 263 263 266 268 270 271 272 273 274 275 271 263 259 267 275 274 274 272 271 273 273 272 268 261 261 265 262 259 257 254 253 256 263 270 275 277 278 277 275 278 280 nan nan nan nan nan nan nan nan nan nan nan nan nan nan nan nan nan nan nan nan nan nan nan nan nan nan nan nan nan nan nan nan nan nan nan nan nan nan
265 265 265 266 269 268 268 268 267 265 264 265 269 274 277 278 278 270 259 252 257 272 271 270 271 270 269 270 272 270 266 266 267 264 259 254 252 252 259 272 277 276 274 272 273 276 nan nan nan nan nan nan nan nan nan nan nan nan nan nan nan nan nan nan nan nan nan nan nan nan nan nan nan nan nan nan nan nan nan nan nan nan nan nan nan
263 266 266 268 271 271 273 275 273 271 273 272 269 270 271 268 265 269 269 261 252 248 254 265 268 266 265 263 262 265 266 266 269 268 262 257 254 253 257 267 276 277 275 273 275 nan nan nan nan nan nan nan nan nan nan nan nan nan nan nan nan nan nan nan nan nan nan nan nan nan nan nan nan nan nan nan nan nan nan nan nan nan nan nan nan
262 261 263 269 272 272 276 279 278 278 279 278 277 277 nan 273 272 274 265 256 249 250 254 248 255 262 258 255 258 263 266 266 265 263 260 257 257 261 264 267 270 265 266 nan nan nan nan nan nan nan nan nan nan nan nan nan nan nan nan nan nan nan nan nan nan nan nan nan nan nan nan nan nan nan nan nan nan nan nan nan nan nan nan nan nan
261 264 268 271 273 275 277 278 278 279 279 276 276 281 nan nan nan nan 274 258 251 250 245 247 255 250 252 255 255 255 260 263 260 261 264 263 262 268 269 269 267 268 nan nan nan nan nan nan nan nan nan nan nan nan nan nan nan nan nan nan nan nan nan nan nan nan nan nan nan nan nan nan nan nan nan nan nan nan nan nan nan nan nan nan nan
264 268 272 274 275 277 278 277 277 280 283 284 285 285 290 291 nan 315 280 nan nan nan 245 237 224 233 235 233 242 246 250 257 259 259 262 266 266 265 266 265 264 268 nan nan nan nan nan nan nan nan nan nan nan nan nan nan nan nan nan nan nan nan nan nan nan nan nan nan nan nan nan nan nan nan nan nan nan nan nan nan nan nan nan nan nan
265 269 273 275 277 278 277 278 282 285 286 287 283 289 300 302 296 nan nan nan 226 238 211 203 208 212 216 219 229 239 244 250 254 252 256 262 264 263 262 260 263 nan nan nan nan nan nan nan nan nan nan nan nan nan nan nan nan nan nan nan nan nan nan nan nan nan nan nan nan nan nan nan nan nan nan nan nan nan nan nan nan nan nan nan nan
267 265 263 264 270 273 274 277 282 284 286 288 284 281 290 298 284 272 nan nan nan 263 235 214 nan 218 217 224 235 247 254 258 261 261 262 264 261 259 258 259 nan nan nan nan nan nan nan nan nan nan nan nan nan nan nan nan nan nan nan nan nan nan nan nan nan nan nan nan nan nan nan nan nan nan nan nan nan nan nan nan nan nan nan nan nan
266 266 265 263 268 269 270 272 278 282 282 285 283 274 274 279 276 271 266 255 257 268 260 232 224 228 242 254 255 255 260 262 263 262 262 262 260 260 nan nan nan nan nan nan nan nan nan nan nan nan nan nan nan nan nan nan nan nan nan nan nan nan nan nan nan nan nan nan nan nan nan nan nan nan nan nan nan nan nan nan nan nan nan nan nan
269 267 267 265 263 266 267 266 270 276 277 278 279 275 270 272 275 270 269 271 258 250 nan nan nan nan nan 256 255 254 261 259 256 260 nan nan nan nan nan nan nan nan nan nan nan nan nan nan nan nan nan nan nan nan nan nan nan nan nan nan nan nan nan nan nan nan nan nan nan nan nan nan nan nan nan nan nan nan nan nan nan nan nan nan nan
267 266 267 268 264 265 266 266 264 267 270 267 268 273 270 271 274 271 271 274 270 258 238 228 228 233 236 245 253 258 261 260 nan nan nan nan nan nan nan nan nan nan nan nan nan nan nan nan nan nan nan nan nan nan nan nan nan nan nan nan nan nan nan nan nan nan nan nan nan nan nan nan nan nan nan nan nan nan nan nan nan nan nan nan nan
263 264 264 265 264 263 265 264 261 261 262 261 261 266 273 275 275 280 279 276 277 278 270 264 257 252 248 nan nan nan nan nan nan nan nan nan nan nan nan nan nan nan nan nan nan nan nan nan nan nan nan nan nan nan nan nan nan nan nan nan nan nan nan nan nan nan nan nan nan nan nan nan nan nan nan nan nan nan nan nan nan nan nan nan nan
260 262 261 261 261 261 260 nan nan nan nan nan nan 262 266 267 270 274 277 280 281 nan 280 283 282 275 nan nan nan nan nan nan nan nan nan nan nan nan nan nan nan nan nan nan nan nan nan nan nan nan nan nan nan nan nan nan nan nan nan nan nan nan nan nan nan nan nan nan nan nan nan nan nan nan nan nan nan nan nan nan nan nan nan nan nan
261 262 261 258 258 259 258 258 nan nan nan nan nan nan 265 268 273 274 276 278 279 279 280 280 278 277 nan 270 270 270 268 267 268 nan nan nan nan nan nan nan nan nan nan nan nan nan nan nan nan nan nan nan nan nan nan nan nan nan nan nan nan nan nan nan nan nan nan nan nan nan nan nan nan nan nan nan nan nan nan nan nan nan nan nan nan
255 255 257 256 254 254 255 254 nan nan nan nan nan nan nan nan nan nan nan nan 280 280 282 282 nan 277 274 271 271 270 nan nan nan nan nan nan nan nan nan nan nan nan nan nan nan nan nan nan nan nan nan nan nan nan nan nan nan nan nan nan nan nan nan nan nan nan nan nan nan nan nan nan nan nan nan nan nan nan nan nan nan nan nan nan nan
nan nan nan 256 254 252 252 251 254 257 260 nan nan nan nan nan nan nan nan nan nan nan nan 281 278 277 nan nan 272 nan nan nan nan nan nan nan nan nan nan nan nan nan nan nan nan nan nan nan nan nan nan nan nan nan nan nan nan nan nan nan nan nan nan nan nan nan nan nan nan nan nan nan nan nan nan nan nan nan nan nan nan nan nan nan nan
nan nan nan nan 260 259 258 260 261 261 263 263 nan nan nan nan nan 280 nan 280 281 nan nan nan 275 276 275 272 269 nan nan nan nan nan nan nan nan nan nan nan nan nan nan nan nan nan nan nan nan nan nan nan nan nan nan nan nan nan nan nan nan nan nan nan nan nan nan nan nan nan nan nan nan nan nan nan nan nan nan nan nan nan nan nan nan
nan nan nan 256 259 261 262 nan 265 266 265 263 nan 266 267 266 nan 274 278 283 284 280 nan nan nan 278 276 273 272 272 nan nan nan nan nan nan nan nan nan nan nan nan nan nan nan nan nan nan nan nan nan nan nan nan nan nan nan nan nan nan nan nan nan nan nan nan nan nan nan nan nan nan nan nan nan nan nan nan nan nan nan nan nan nan nan
nan nan nan nan nan nan nan nan nan nan nan nan nan nan nan nan 255 nan nan 266 273 275 276 nan nan 277 275 273 272 nan nan nan nan nan nan nan nan nan nan nan nan nan nan nan nan nan nan nan nan nan nan nan nan nan nan nan nan nan nan nan nan nan nan nan nan nan nan nan nan nan nan nan nan nan nan nan nan nan nan nan nan nan nan nan nan
nan nan nan nan nan nan nan nan nan nan nan nan nan nan nan nan nan nan nan 259 266 272 nan nan 260 259 259 262 nan nan nan nan nan nan nan nan nan nan nan nan nan nan nan nan nan nan nan nan nan nan nan nan nan nan nan nan nan nan nan nan nan nan nan nan nan nan nan nan nan nan nan nan nan nan nan nan nan nan nan nan nan nan nan nan nan